Wind_Speed
11 10 10 9 6 4 1 4 5 5 7 5 5 5 5 6 6 7 8 8 9 9 9 8 8 8 9 9 10 11 13 15 19 26 29 31 33 32 32 33 31 32 31
8 9 10 10 7 5 3 3 5 6 5 3 5 6 6 7 7 8 8 7 8 8 8 8 9 10 10 10 12 14 16 18 21 26 28 30 32 34 35 34 31 31 33
8 8 6 5 5 4 7 8 7 5 6 5 6 6 6 6 6 5 5 7 6 6 6 7 8 9 10 12 14 16 18 20 23 27 29 29 30 32 36 33 33 33 31
7 7 7 6 7 5 5 6 7 7 7 5 5 4 3 2 2 2 4 4 5 6 6 7 9 11 12 14 16 17 19 23 24 27 28 29 29 30 32 32 37 35 36
12 11 10 9 10 7 5 6 6 5 5 5 4 3 3 3 2 2 4 5 7 8 8 9 11 13 13 12 15 18 21 24 26 28 29 29 28 29 31 33 32 35 41
12 8 8 9 8 7 6 6 7 8 7 6 6 6 6 7 8 9 9 9 11 11 12 12 13 14 11 16 15 17 21 25 27 28 30 30 34 30 33 31 34 31 20
9 8 8 8 9 8 8 9 9 9 8 9 7 8 10 10 13 14 13 13 14 14 14 15 16 16 17 17 19 21 23 23 24 28 31 31 36 35 34 35 36 35 36
8 8 8 9 10 8 8 10 10 10 10 9 9 11 12 12 14 17 15 16 16 16 16 17 18 19 19 18 24 25 26 26 26 25 29 37 36 39 36 37 39 42 43
8 8 8 9 8 7 8 7 9 9 11 11 11 12 13 15 15 19 17 15 17 16 17 18 19 21 21 22 23 28 29 28 25 28 33 33 36 38 36 35 33 31 30
6 7 6 7 8 7 7 9 10 12 12 12 12 14 16 18 19 20 18 16 18 18 18 18 19 19 14 22 23 28 31 30 30 36 32 33 30 30 29 29 31 31 32
5 5 6 7 8 8 10 11 12 13 13 14 15 16 16 15 16 17 20 15 17 19 19 19 21 19 23 24 25 26 28 32 33 29 29 30 30 30 30 30 35 35 36
6 7 6 9 10 10 11 14 14 15 16 16 18 19 17 14 11 13 12 10 15 16 17 20 21 25 27 25 26 23 28 31 26 25 27 28 29 32 34 35 40 43 43
9 10 12 12 15 16 17 18 19 19 19 19 18 19 18 15 15 14 15 14 12 12 18 21 22 25 23 24 22 28 27 26 20 24 27 27 31 32 36 36 40 42 45
13 15 17 18 19 18 18 19 21 22 22 18 18 16 15 15 13 13 9 9 12 14 17 21 27 26 22 21 23 22 23 23 22 25 28 29 30 32 34 34 36 40 39
18 18 18 19 18 16 16 17 18 14 13 10 11 8 8 9 7 5 10 12 14 16 20 23 22 19 20 21 22 23 23 22 24 23 27 29 28 30 33 35 36 36 33
19 18 18 16 14 13 12 10 9 10 5 7 8 7 6 8 8 11 10 10 12 17 18 19 17 18 19 21 22 22 22 22 22 25 26 28 26 29 32 35 33 32 31
15 14 13 11 11 10 8 6 5 4 4 4 4 5 6 9 10 9 9 12 18 15 17 16 16 18 19 20 21 21 22 23 24 23 27 27 27 27 30 31 31 31 32
10 10 9 11 11 9 7 3 3 5 4 9 6 3 7 8 8 9 11 17 15 7 14 15 17 18 19 20 21 21 22 23 23 25 25 26 26 26 28 28 30 29 30
8 9 9 10 7 4 4 3 5 4 4 5 5 6 7 5 8 10 8 11 12 13 14 15 16 18 19 20 21 20 21 22 24 24 24 24 25 25 26 27 28 30 29
8 7 6 5 5 5 5 7 4 4 5 6 6 5 5 8 10 8 9 11 13 14 15 17 18 18 19 20 20 20 20 22 22 23 23 23 24 25 26 26 26 27 26
5 5 5 5 8 10 7 5 4 5 6 6 6 3 5 10 11 10 10 12 13 15 17 18 19 19 20 20 19 19 20 21 21 22 23 24 25 26 26 25 25 25 24
7 6 9 9 7 8 9 7 8 7 7 7 7 5 5 7 10 11 12 13 15 15 17 18 19 20 20 19 19 19 20 20 21 22 23 25 25 26 25 24 23 22 22
8 8 9 10 9 7 7 11 10 8 8 8 9 10 9 11 13 13 14 15 16 17 18 19 20 20 19 19 18 19 19 19 20 20 24 24 24 24 23 22 21 20 19
9 10 11 11 11 11 12 12 12 10 11 12 11 11 12 13 13 13 15 15 16 17 19 19 19 20 20 19 18 18 19 16 18 22 21 22 22 22 22 21 18 18 18
12 12 13 13 14 14 16 16 16 15 14 12 13 14 15 14 13 14 15 15 15 18 20 19 20 18 19 19 20 19 17 21 25 19 18 20 20 20 18 18 17 16 15
15 15 16 17 18 18 20 20 20 18 15 13 15 15 15 14 17 16 17 15 17 19 20 20 18 19 19 19 17 17 22 26 19 22 20 19 17 16 16 16 16 16 14
Wind_Direction
138 130 119 107 96 82 82 130 129 136 142 130 111 97 81 81 76 68 66 52 52 44 33 23 19 7 354 339 330 316 306 301 298 301 305 307 308 308 308 308 308 308 308
118 125 125 123 97 79 82 155 158 140 124 146 120 117 105 86 76 68 63 57 49 39 24 11 3 356 352 339 333 322 311 308 302 296 299 303 306 307 306 304 305 305 304
146 140 135 134 150 155 155 169 154 136 136 139 114 102 91 80 70 57 50 44 37 23 8 358 348 344 341 332 326 321 318 312 305 300 301 301 303 304 304 302 302 304 302
180 179 165 184 196 173 153 165 167 165 150 140 122 121 116 101 90 36 27 16 357 346 340 337 330 328 330 328 324 319 319 312 306 303 304 304 304 303 299 300 304 304 303
200 194 182 193 199 178 162 157 182 181 191 178 183 194 223 245 238 328 329 321 316 318 319 319 318 311 301 294 307 313 314 313 311 309 306 306 304 309 308 303 296 299 299
212 212 178 181 207 193 196 200 199 211 221 219 227 239 251 262 263 283 287 293 298 301 307 313 313 311 315 311 294 299 304 305 306 307 305 308 303 302 299 302 299 298 296
189 204 213 216 220 217 215 223 224 226 232 238 247 259 260 263 269 276 276 275 282 293 298 302 307 314 315 311 312 306 305 304 297 299 299 303 306 304 303 298 294 290 287
210 217 218 213 224 223 225 227 233 237 241 252 257 258 264 269 270 278 277 266 275 282 288 292 299 307 313 312 314 310 308 307 307 306 304 301 299 295 294 290 289 288 285
221 222 225 223 222 225 236 240 241 243 249 255 263 269 273 277 278 281 278 270 273 284 287 289 296 300 302 307 311 310 308 307 307 312 309 302 300 295 294 289 287 287 288
230 236 234 231 238 248 254 255 251 248 255 270 277 277 274 274 274 275 282 277 279 289 291 292 297 298 298 314 307 307 307 310 316 314 310 309 305 302 297 293 290 289 287
245 232 228 246 252 257 260 258 258 259 266 268 269 273 277 285 285 279 284 273 278 294 300 300 305 312 313 308 306 302 303 309 309 305 311 311 311 311 307 304 299 292 287
238 248 249 256 261 265 262 265 263 263 264 268 273 272 276 281 292 300 291 281 283 281 291 298 305 309 310 309 307 302 303 307 301 309 309 309 315 316 313 308 307 301 294
257 256 260 266 265 265 269 273 275 271 268 263 264 269 274 273 288 272 298 298 280 280 292 298 301 304 301 303 309 304 300 297 306 312 306 311 315 316 315 312 311 310 309
261 264 264 263 265 265 264 266 271 270 267 266 264 265 272 275 278 277 266 276 283 286 304 309 305 293 291 297 302 311 310 312 313 310 310 313 316 319 319 318 314 313 316
257 264 269 271 270 274 273 275 278 298 318 316 311 280 278 269 289 280 295 294 304 308 309 305 301 307 309 309 313 313 312 315 316 318 315 312 322 322 322 323 318 319 321
260 265 273 282 281 285 288 292 300 300 284 264 265 267 271 274 259 273 286 297 306 312 307 299 306 311 311 314 315 314 316 318 322 322 316 321 326 323 324 323 322 325 325
258 268 280 285 280 284 297 293 301 249 255 255 246 258 260 270 279 283 291 299 303 293 290 306 310 313 314 314 314 316 319 320 319 320 323 320 328 326 327 325 325 329 330
276 284 278 284 293 290 277 218 216 283 254 205 177 213 263 275 275 281 298 309 295 283 294 310 313 314 314 315 314 318 318 319 321 323 321 326 329 329 329 327 327 330 331
280 283 293 298 291 250 222 224 253 242 289 290 282 221 213 266 284 275 276 294 313 309 311 312 312 314 313 314 313 316 317 317 320 318 322 328 328 333 329 328 327 328 335
276 284 283 268 249 235 221 235 224 262 278 288 292 297 296 292 289 287 295 304 304 306 308 311 313 312 313 313 312 315 317 320 321 322 323 327 330 335 330 330 330 328 337
266 266 263 238 219 226 236 225 243 277 286 294 290 280 295 307 297 295 301 304 307 310 312 313 312 314 311 312 313 316 317 318 319 322 324 326 332 332 330 331 330 331 336
248 241 228 230 233 229 230 235 248 265 273 277 280 258 270 280 281 301 304 305 307 308 310 311 311 311 310 312 314 314 314 316 320 323 325 326 329 328 327 329 330 332 334
249 241 235 236 236 235 235 254 255 261 269 278 283 288 280 299 305 304 301 304 306 305 307 308 308 308 307 309 309 308 310 314 316 321 320 320 323 321 323 323 327 330 331
249 246 244 240 234 245 242 247 253 245 263 285 290 288 282 282 282 286 287 289 297 299 300 303 306 306 304 305 306 306 312 312 310 314 314 314 313 316 316 317 322 326 325
244 247 250 249 248 241 243 248 250 256 254 257 273 277 276 278 292 281 301 289 292 297 298 302 305 303 302 304 304 306 300 304 310 310 314 309 307 309 309 312 316 322 322
252 250 251 252 252 251 253 253 256 255 256 261 266 271 285 296 288 297 294 287 289 297 302 303 301 301 302 303 303 296 304 310 317 319 315 307 305 306 308 309 311 314 316
Height
845 847 848 851 854 857 860 859 859 860 861 862 862 863 864 863 862 862 860 861 859 859 859 858 857 855 854 853 852 849 847 845 840 834 830 822 818 813 807 804 798 792 786
848 851 851 851 854 856 860 862 862 862 862 864 862 862 864 864 863 862 861 862 860 860 860 860 858 855 853 852 850 848 846 843 838 831 825 819 814 809 804 797 792 788 782
849 851 854 857 858 859 856 860 861 862 862 866 863 863 864 864 863 864 865 862 860 860 859 858 857 855 852 851 849 846 841 839 836 830 820 815 809 805 797 791 788 782 777
849 848 851 858 862 861 859 860 861 861 860 863 862 864 865 864 864 865 862 860 860 860 858 856 856 854 849 847 846 843 840 839 832 824 815 808 805 800 795 787 778 778 772
850 848 848 855 862 858 859 858 861 861 863 861 862 862 864 863 862 862 861 860 859 858 855 853 851 850 846 844 844 841 839 834 827 819 812 805 801 795 793 788 780 773 762
849 848 848 852 859 855 857 859 859 862 863 860 860 860 860 862 858 858 857 858 857 855 852 849 847 845 842 841 839 837 835 830 824 817 809 803 799 795 789 783 776 768 754
846 847 850 853 854 855 855 859 858 860 859 859 856 858 858 857 856 855 854 853 853 849 847 846 843 840 838 835 834 831 827 823 820 814 806 800 792 789 786 778 771 763 754
845 847 848 850 853 852 853 854 856 856 856 855 852 854 854 852 852 851 849 849 847 844 842 842 839 836 833 831 828 824 819 816 811 808 803 795 790 783 780 773 764 752 742
844 845 847 848 848 849 850 850 851 851 852 850 850 849 848 848 847 847 846 845 841 837 836 836 833 831 828 826 823 817 813 808 804 800 795 788 782 775 771 764 754 746 730
842 844 845 846 846 846 846 848 848 848 847 845 844 843 844 844 843 843 841 840 834 833 830 828 826 823 822 820 818 813 805 801 796 791 785 781 774 766 761 756 748 737 726
841 841 842 843 844 843 845 844 844 843 841 840 839 839 838 837 837 837 835 833 831 828 825 823 822 818 816 814 812 808 802 797 791 785 779 774 766 759 753 747 740 731 718
840 840 839 841 841 840 840 840 838 837 836 835 834 833 832 832 832 832 830 828 828 827 823 820 817 814 812 808 805 801 796 791 786 781 776 768 760 752 745 737 728 717 706
838 838 837 837 837 836 836 835 833 831 829 828 827 827 826 827 827 827 826 824 824 823 819 816 813 809 805 801 796 794 789 783 778 777 771 763 756 748 739 729 717 706 691
834 834 833 832 830 830 829 827 826 824 821 820 821 822 822 823 823 823 822 821 819 816 813 810 807 802 797 794 790 786 783 778 775 772 765 758 751 743 733 724 712 698 684
830 828 826 824 823 822 821 820 819 819 819 817 819 817 820 821 820 820 820 819 817 814 811 807 799 794 792 789 786 783 778 774 770 767 762 753 746 739 730 720 709 695 683
822 820 818 816 817 817 817 818 818 818 818 819 818 818 818 818 817 817 817 815 813 811 807 800 794 792 789 786 783 778 774 770 766 763 757 749 743 736 727 716 707 696 683
817 816 815 814 814 814 814 815 815 816 815 816 815 815 816 816 815 814 813 811 809 807 801 795 792 790 788 784 780 776 771 768 763 759 754 747 741 735 727 717 706 696 683
813 812 812 811 810 811 812 811 811 811 810 810 811 813 813 813 813 812 810 807 801 798 796 793 791 789 786 782 778 773 770 766 760 756 751 745 740 734 726 717 708 698 687
810 808 807 806 808 808 808 809 808 807 806 806 807 808 809 809 808 807 806 803 799 796 794 791 789 786 783 779 775 771 768 764 760 754 749 743 739 733 727 719 710 699 690
806 807 807 806 806 806 806 804 804 805 805 804 804 804 806 805 802 800 800 799 796 793 790 788 785 783 779 776 772 768 765 761 756 752 747 742 737 733 728 720 712 702 692
805 805 806 806 805 803 801 802 803 804 803 803 803 804 806 806 801 797 795 794 792 789 787 785 782 779 776 772 769 766 763 759 755 751 746 741 736 733 728 721 714 706 697
802 803 801 799 799 800 800 801 802 801 801 800 800 799 801 801 796 794 792 790 788 786 784 782 779 776 773 770 767 764 761 757 754 750 746 741 736 733 728 722 716 709 701
799 797 797 797 798 797 799 799 798 797 797 797 797 796 795 794 793 792 790 789 786 784 781 778 775 772 770 767 765 762 758 755 753 750 746 741 737 733 728 723 718 712 706
796 795 793 791 791 793 793 792 791 792 795 794 792 792 792 791 790 789 787 785 784 782 777 774 771 769 766 764 761 758 755 753 752 749 745 741 737 732 727 723 718 714 709
790 790 789 788 787 787 787 786 785 784 784 786 788 788 785 783 783 783 781 780 779 777 772 769 766 764 762 760 757 755 751 749 747 744 742 739 734 730 726 722 718 715 710
785 783 781 780 778 777 778 778 777 776 778 780 780 780 779 780 780 779 778 776 774 770 767 764 762 760 758 755 752 749 748 745 742 739 736 733 730 727 724 721 718 714 711